Location: Stigler
(35.2540°N, 95.1230°W)
Time: 07:46:29
(UTC-06:00)

Cosmos 2369 - Pass Details

Date: 26 September 2017
Orbit: 838 x 858 km, 71.0° (Epoch: 16 December)

Event Time Altitude Azimuth Distance (km) Brightness Sun altitude
Rises 21:10:12 0° 343° (NNW) 3,400 7.3 -24.9°
Reaches altitude 10° 21:12:42 10° 348° (NNW) 2,464 6.5 -25.4°
Enters shadow 21:17:33 52° 37° (NE) 1,039 4.0 -26.3°
